Location: Newark
(51.2667°N, 3.9167°E)
Time: 19:20:04
(UTC+00:00)

Envisat - Visible Passes

Search period start: 18 March 2019 00:00
Search period end: 28 March 2019 00:00
Orbit: 764 x 766 km, 98.2° (Epoch: 18 March)

Date Brightness Start Highest point End Pass type
(mag) Time Alt. Az. Time Alt. Az. Time Alt. Az.
18 Mar 5.7 19:30:43 10° SW 19:34:31 21° W 19:38:20 10° NW visible
19 Mar 4.5 18:52:39 10° SSW 18:57:25 40° W 19:02:14 10° NNW visible
20 Mar 6.1 19:58:10 10° WSW 20:00:25 13° W 20:02:40 10° WNW visible
21 Mar 5.4 19:19:00 10° SSW 19:23:11 25° W 19:27:23 10° NW visible
22 Mar 4.1 18:41:14 10° S 18:46:09 49° W 18:51:06 10° NNW visible
23 Mar 5.9 19:45:59 10° SW 19:49:02 16° W 19:52:06 10° NW visible
24 Mar 5.0 19:07:23 10° SSW 19:11:51 31° W 19:16:21 10° NNW visible
25 Mar 3.7 18:29:52 10° S 18:34:53 60° W 18:39:56 10° NNW visible
26 Mar 5.8 19:34:03 10° SW 19:37:40 19° W 19:41:18 10° NW visible
27 Mar 4.7 18:55:52 10° SSW 19:00:33 37° W 19:05:17 10° NNW visible
